Погода в Ашхабаде

Погода в Ашхабаде : погода сейчас, прогноз погоды и архив. Всё, что Вы хотите узнать о погоде в Ашхабаде!

Поиск расширенной информации на нашем сайте:

Другие новости

Новости СМИ2

Главная страница сайта

Новости сайта

03.07.2017

Напоминаем, что на нашем специализированном сайте Метеоцентр.Азия вы можете получить высокодетализированные автоматические прогнозы погоды по пунктам России, СНГ и мира в авиационном формате (включающие направление и скорость ветра, видимость, явления погоды, количество и форму облачности, нижнюю и верхнюю границу облачности).

Рекомендуем: вред курения

Погода в Ашхабаде - сегодня

Время (UTC), дата Ветер
(°,м/с) 
Видим.   Явления Облачность Т
(°С)
Тd
(°С)
f(%) Тe
(°С)
Pmin
(гПа)
dP
(гПа)
Po
(мм)
O2
(г/м3)
Тmin Tmax R s Состояние
почвы
21 16.04.18 270 (З) 10 км    10/8 1500 м кучево-дожд., средняя 
[Cb cap|Ac und]
+9 +0.4 55 +7  1025.2  -0.5  735  286           
00 17.04.18 260 (З) 10 км    10/8 1500 м кучево-дожд., средняя 
[Cb cap|Ac und]
+8.8 +3.2 68 +8  1025  -0.2  750  292           
03 17.04.18 280 (З) 10 км    9/6 1500 м кучево-дожд., средняя 
[Cb cap|Ac und]
+9.2 +2.1 61 +9  1025.8  0.8  750  292           
06 17.04.18 290 (З) 10 км    6/6 1500 м 
[Cu hum]
+12 +1.5 49 +11  1026.6  1.1  751  290  +8.6         
09 17.04.18 310 (СЗ) 10 км    8/8 1500 м кучево-дожд. 
[Cb cap]
+14 -3.6 29 +13  1025.8  -0.6  751  288           
12 17.04.18 310 (СЗ) 10 км    8/6 1500 м кучево-дожд., средняя 
[Cb cap|Ac trans]
+14.6 -4.1 27 +15  1025.2  -0.6  750  287           
15 17.04.18 230 (ЮЗ) 10 км    8/5 1500 м кучево-дожд., средняя 
[Cb cap|Ac trans]
+14.2 +0 38 +14  1025.1  -0.1  750  287    +16       
18 17.04.18 240 (ЮЗ) 10 км    8/3 1500 м средняя 
[Sc|Ac trans]
+11.6 +2.1 52 +12  1026.4  751  290    +16       
21 17.04.18 230 (ЮЗ) 10 км    8/6 1500 м кучево-дожд., средняя 
[Cb cap|Ac trans]
+10.6 +3.8 63 +11  1025.6  -0.8  750  290           
00 18.04.18 230 (ЮЗ) 10 км    5/3 1500 м средняя 
[Sc|Ac trans]
+7.7 +3.5 75 +9  1025.8  750  293           
03 18.04.18 250 (З) 10 км    8/0 средняя, верхняя 
[Ac trans|Ci fib]
+8.2 +3.6 73 +9  1026.4  0.6  751  293           
06 18.04.18 080 (В) 10 км    8/3 1500 м средняя, верхняя 
[Sc|Ac trans|Ci fib]
+15.8 -3.3 27 +16  1026.5  0.7  751  286  +7.4         
09 18.04.18 180 (Ю) 10 км    8/8 1500 м кучево-дожд. 
[Cb cap]
+18 -1.4 27 +19  1024.5  -1.8  750  284           
12 18.04.18 130 (ЮВ) 10 км    8/6 1500 м кучево-дожд., средняя 
[Cb cap|Ac trans]
+18.5 -2.5 24 +19  1023.1  -1.3  749  283           
15 18.04.18 240 (ЮЗ) 10 км    10/6 1500 м кучево-дожд., средняя 
[Cb cap|Ac und]
+17 -0.2 31 +17  1023.7  0.5  749  284    +19.7       
18 18.04.18 220 (ЮЗ) 10 км    5/0 средняя 
[Ac trans]
+14.6 +1.3 40 +15  1024.4  0.4  749  286    +19.7       
21 18.04.18 250 (З) 10 км    3/0 средняя 
[Ac trans]
+12 +1.7 49 +12  1023.6  -0.9  749  289           
00 19.04.18 180 (Ю) 10 км    ясно 
+10 +1.9 57 +10  1022.8  -1  748  290           
03 19.04.18 120 (ЮВ) 20000 м    ясно 
+10.4 +2.5 58 +11  1022.5  -0.3  748  290           
06 19.04.18 110 (В) 10 км    4/4 1500 м 
[Sc]
+18.6 -8.2 15 +18  1021.3  -0.5  747  283  +8.6         
09 19.04.18 090 (В) 10 км    6/3 1500 м верхняя 
[Sc|Ci fib]
+19.6 -3.8 20 +20  1018.8  -2.3  746  281           
12 19.04.18 140 (ЮВ) 10 км    10/1 1500 м верхняя 
[Sc|Ci fib]
+20.8 -3 20 +21  1016.7  -2  744  279           
15 19.04.18 100 (В) 10 км    10/0 верхняя 
[Ci sp]
+19 -2.2 24 +19  1015.2  -1.5  743  280    +21.4       
18 19.04.18 120 (ЮВ) 10 км    10/0 верхняя 
[Ci sp]
+16.9 -0.7 30 +17  1014.3  -1.1  742  282    +21.4       
21 19.04.18 110 (В) 10 км    10/0 верхняя 
[Ci sp]
+14 -0.5 37 +13  1011.6  -2.9  740  284           
Время (UTC), дата Ветер
(°,м/с) 
Видим.   Явления Облачность Т
(°С)
Тd
(°С)
f(%) Тe
(°С)
Pmin
(гПа)
dP
(гПа)
Po
(мм)
O2
(г/м3)
Тmin Tmax R s Состояние
почвы

Для получения пояснительной информации подведите курсор к названию столбца.

ПОГОДА в Ашхабаде - архив

Всё, что Вы хотите узнать о погоде в Ашхабаде - удобно и подробно!

Выберите нужную дату (начиная с 1 января 2015* года) и нажмите кнопку "Найти".
Будут отображены архивные сводки погоды по пункту Ашхабад, начиная с указанной даты.


Отображать данные в формате CSV (для использования в таблицах Excel)


Внимание! Наш архив погоды предназначен исключительно для личного некоммерческого использования в познавательных целях. Если Вам необходимы официальные справки о состоянии погоды (для производственных, юридических, коммерческих и т.п. целей), обращайтесь в органы Росгидромета.

*Примечание: данная дата относится к архиву по метеостанциям СССР (Россия, СНГ, Балтия).
Архив по метеостанциям Зарубежной Европы и Азии (кроме Китая) хранится 10 дней, по другим регионам земного шара (Китай, Африка, Америка, Австралия, Океания) - 1 день.

Ашхабад - район местоположения метеостанции


Название, широта, долгота, высота метеостанции:
Ашхабад (город) 38°ш. 58.3°д. 208 м над ур. моря [Туркменистан]

Дополнительная информация

В oтличие oт бoльшинства пoгoдных сайтoв мы публикуем пoдрoбную метеoинфoрмацию в детальнoм прoфессиoнальнoм фoрмате.

Характеристики температуры и влажнoсти вoздуха измеряются на высoте 2 м в тени вдали oт зданий и деревьев.
Скoрoсть ветра измеряется на высoте 10 м (на урoвне рoста челoвека скoрoсть ветра ниже в 1.5-2 раза). Если метеoстанция нахoдится в гoрoде или в лесу, тo скoрoсть ветра занижена на 2-4 м/с пo сравнению с oткрытым местoм. Скoрoсть ветра над акватoриями крупных рек и oзёр, а также на вершинах хoлмoв на 2-5 м/с выше, чем в oбычных услoвиях.
Атмoсфернoе давление в разных тoчках местнoсти мoжет значительнo oтличаться oт давления на метеoстанции, в зависимoсти oт услoвий рельефа (при пoдъёме на 10 м давление пoнижается примернo на 1 мм рт.ст.).